Change the Weather History Date:

Tuesday, January 7, 2014

  Actual Average (KRIL) Record (KRIL)
Temperature  
Mean Temperature 24 °F 23 °F  
Max Temperature 30 °F 35 °F 50 °F (1954)
Min Temperature 19 °F 11 °F -33 °F (1913)
Degree Days  
Heating Degree Days 40 42  
Month to date heating degree days 294  
Since 1 July heating degree days 3058  
Cooling Degree Days 0 0  
Month to date cooling degree days 0  
Year to date cooling degree days 0  
Moisture  
Dew Point 15 °F    
Average Humidity 73    
Maximum Humidity 93    
Minimum Humidity 50    
Precipitation  
Precipitation 0.00 in 0.03 in 0.30 in (1937)
Month to date precipitation 0.22  
Year to date precipitation 0.22  
Sea Level Pressure  
Sea Level Pressure 30.14 in    
Wind  
Wind Speed 2 mph (SSW)    
Max Wind Speed 5 mph    
Max Gust Speed -    
Visibility 6 miles    
Events Snow    
T = Trace of Precipitation, MM = Missing Value Source: NWS Daily Summary

Daily Weather History Graph

Daily Weather History Graph

Search for Another Location

Airport or City:

Trip Planner

Search our weather history database for the weather conditions in past years. The results will help you decide how hot, cold, wet, or windy it might be!

Date:

Astronomy

Jan. 07, 2014 Rise Set
Actual Time 7:29 AM MST 5:02 PM MST
Civil Twilight 6:59 AM MST 5:32 PM MST
Nautical Twilight 6:26 AM MST 6:05 PM MST
Astronomical Twilight 5:54 AM MST 6:37 PM MST
Moon 11:22 AM MST (1/7) No Moon Set
Length of Visible Light 10h 32m
Length of Day
9h 32m
Waxing Crescent, 46% of the Moon is Illuminated
Jan 7
Waxing Crescent
Jan 7
First Quarter
Jan 15
Full
Jan 23
Last Quarter
Jan 30
New

Hourly Weather History & Observations

Time (MST) Temp. Windchill Dew Point Humidity Pressure Visibility Wind Dir Wind Speed Gust Speed Precip Events Conditions
12:19 AM 19.4 °F 12.8 °F 10.4 °F 68% 30.27 in 10.0 mi SW 4.6 mph - N/A   Clear
12:39 AM 19.4 °F 14.3 °F 8.6 °F 63% 30.26 in 10.0 mi SSW 3.5 mph - N/A   Clear
12:59 AM 19.4 °F 14.3 °F 8.6 °F 63% 30.26 in 10.0 mi SW 3.5 mph - N/A   Clear
1:19 AM 19.4 °F 12.8 °F 8.6 °F 63% 30.26 in 10.0 mi SSW 4.6 mph - N/A   Clear
1:39 AM 19.4 °F 14.3 °F 6.8 °F 58% 30.26 in 10.0 mi SSW 3.5 mph - N/A   Clear
1:59 AM 19.4 °F 14.3 °F 5.0 °F 54% 30.26 in 10.0 mi SSW 3.5 mph - N/A   Clear
2:19 AM 19.4 °F 14.3 °F 5.0 °F 54% 30.26 in 10.0 mi SSW 3.5 mph - N/A   Clear
2:39 AM 21.2 °F 16.4 °F 5.0 °F 50% 30.26 in 10.0 mi SW 3.5 mph - N/A   Clear
2:59 AM 21.2 °F 16.4 °F 5.0 °F 50% 30.26 in 10.0 mi SSW 3.5 mph - N/A   Clear
3:19 AM 21.2 °F 16.4 °F 5.0 °F 50% 30.25 in 10.0 mi SSW 3.5 mph - N/A   Clear
3:39 AM 21.2 °F 16.4 °F 5.0 °F 50% 30.24 in 10.0 mi SW 3.5 mph - N/A   Clear
3:59 AM 21.2 °F 16.4 °F 8.6 °F 58% 30.24 in 10.0 mi SW 3.5 mph - N/A   Clear
4:19 AM 21.2 °F 16.4 °F 10.4 °F 63% 30.24 in 10.0 mi SW 3.5 mph - N/A   Clear
4:39 AM 21.2 °F 16.4 °F 12.2 °F 68% 30.22 in 10.0 mi SW 3.5 mph - N/A   Clear
4:59 AM 23.0 °F 18.4 °F 12.2 °F 63% 30.22 in 10.0 mi SSW 3.5 mph - N/A   Clear
5:19 AM 23.0 °F 18.4 °F 12.2 °F 63% 30.21 in 10.0 mi SW 3.5 mph - N/A   Clear
5:39 AM 23.0 °F 18.4 °F 12.2 °F 63% 30.21 in 10.0 mi SW 3.5 mph - N/A   Clear
5:59 AM 23.0 °F - 12.2 °F 63% 30.20 in 10.0 mi Calm Calm - N/A   Clear
6:19 AM 21.2 °F - 14.0 °F 74% 30.20 in 10.0 mi Calm Calm - N/A   Clear
6:39 AM 21.2 °F - 12.2 °F 68% 30.20 in 10.0 mi Calm Calm - N/A   Clear
6:58 AM 21.2 °F - 12.2 °F 68% 30.20 in 10.0 mi Calm Calm - N/A   Clear
7:20 AM 21.2 °F 16.4 °F 12.2 °F 68% 30.19 in 10.0 mi SW 3.5 mph - N/A   Scattered Clouds
7:40 AM 21.2 °F - 12.2 °F 68% 30.19 in 10.0 mi Calm Calm - N/A   Scattered Clouds
8:00 AM 21.2 °F - 12.2 °F 68% 30.18 in 10.0 mi Calm Calm - N/A   Clear
8:20 AM 21.2 °F - 12.2 °F 68% 30.20 in 10.0 mi Calm Calm - N/A   Clear
8:40 AM 23.0 °F - 12.2 °F 63% 30.20 in 10.0 mi Calm Calm - N/A   Scattered Clouds
9:00 AM 23.0 °F - 14.0 °F 68% 30.20 in 10.0 mi Calm Calm - N/A   Mostly Cloudy
9:20 AM 24.8 °F - 14.0 °F 64% 30.20 in 10.0 mi Calm Calm - N/A   Overcast
9:38 AM 26.6 °F - 14.0 °F 59% 30.19 in 10.0 mi Calm Calm - N/A   Mostly Cloudy
10:00 AM 26.6 °F - 14.0 °F 59% 30.18 in 10.0 mi Calm Calm - N/A   Overcast
10:17 AM 26.6 °F - 15.8 °F 64% 30.18 in 10.0 mi Calm Calm - N/A   Overcast
10:40 AM 28.4 °F - 15.8 °F 59% 30.18 in 10.0 mi Calm Calm - N/A   Overcast
11:00 AM 30.2 °F - 17.6 °F 60% 30.17 in 10.0 mi Calm Calm - N/A   Overcast
11:20 AM 30.2 °F - 19.4 °F 64% 30.15 in 10.0 mi Calm Calm - N/A   Mostly Cloudy
11:39 AM 30.2 °F - 17.6 °F 60% 30.14 in 10.0 mi Calm Calm - N/A   Mostly Cloudy
11:59 AM 30.2 °F - 15.8 °F 55% 30.12 in 10.0 mi Calm Calm - N/A   Overcast
12:18 PM 28.4 °F - 14.0 °F 55% 30.11 in 10.0 mi Calm Calm - N/A   Overcast
12:38 PM 28.4 °F - 15.8 °F 59% 30.09 in 10.0 mi Calm Calm - N/A   Overcast
12:58 PM 28.4 °F - 15.8 °F 59% 30.09 in 7.0 mi Calm Calm - N/A   Overcast
1:19 PM 28.4 °F - 14.0 °F 55% 30.07 in 7.0 mi Calm Calm - N/A   Overcast
1:40 PM 26.6 °F - 14.0 °F 59% 30.07 in 7.0 mi Calm Calm - N/A   Overcast
1:58 PM 26.6 °F - 14.0 °F 59% 30.07 in 7.0 mi Calm Calm - N/A   Overcast
2:18 PM 26.6 °F 22.6 °F 19.4 °F 74% 30.06 in 1.2 mi South 3.5 mph - N/A Snow Light Snow
2:40 PM 24.8 °F - 19.4 °F 80% 30.08 in 0.8 mi Calm Calm - N/A Snow Light Snow
2:58 PM 24.8 °F - 17.6 °F 74% 30.09 in 4.0 mi Calm Calm - N/A   Haze
3:17 PM 23.0 °F - 17.6 °F 80% 30.09 in 2.5 mi Calm Calm - N/A Snow Light Snow
3:40 PM 23.0 °F - 17.6 °F 80% 30.09 in 1.5 mi Calm Calm - N/A Snow Light Snow
4:00 PM 23.0 °F - 17.6 °F 80% 30.08 in 1.0 mi Calm Calm - N/A Snow Light Snow
4:20 PM 21.2 °F - 17.6 °F 86% 30.08 in 0.5 mi Calm Calm - N/A Snow Light Snow
4:40 PM 21.2 °F - 17.6 °F 86% 30.07 in 0.2 mi Calm Calm - N/A Snow Snow
5:00 PM 19.4 °F - 17.6 °F 93% 30.06 in 0.2 mi Calm Calm - N/A Snow Snow
5:20 PM 19.4 °F 14.3 °F 17.6 °F 93% 30.06 in 0.5 mi SSW 3.5 mph - N/A Snow Snow
5:37 PM 19.4 °F - 17.6 °F 93% 30.06 in 1.0 mi Calm Calm - N/A Snow Light Snow
5:58 PM 21.2 °F - 19.4 °F 93% 30.06 in 0.5 mi Calm Calm - N/A Snow Snow
6:17 PM 23.0 °F - 19.4 °F 86% 30.06 in 0.2 mi Calm Calm - N/A Snow Heavy Snow
6:37 PM 23.0 °F - 19.4 °F 86% 30.06 in 1.0 mi Calm Calm - N/A Snow Light Snow
6:57 PM 23.0 °F - 21.2 °F 93% 30.06 in 1.5 mi Calm Calm - N/A Snow Light Snow
7:16 PM 23.0 °F - 21.2 °F 93% 30.06 in 2.0 mi Calm Calm - N/A Snow Light Snow
7:39 PM 23.0 °F - 19.4 °F 86% 30.06 in 0.8 mi Calm Calm - N/A Snow Snow
7:56 PM 21.2 °F - 19.4 °F 93% 30.06 in 0.5 mi Calm Calm - N/A Snow Heavy Snow
8:16 PM 21.2 °F - 19.4 °F 93% 30.06 in 1.2 mi Calm Calm - N/A Snow Light Snow
8:37 PM 21.2 °F - 19.4 °F 93% 30.06 in 0.8 mi Calm Calm - N/A Snow Snow
8:57 PM 21.2 °F - 19.4 °F 93% 30.06 in 1.0 mi Calm Calm - N/A Snow Snow
9:19 PM 21.2 °F - 19.4 °F 93% 30.06 in 1.5 mi Calm Calm - N/A Snow Light Snow
9:39 PM 21.2 °F - 19.4 °F 93% 30.06 in 1.5 mi Calm Calm - N/A Snow Light Snow
9:59 PM 21.2 °F - 19.4 °F 93% 30.06 in 1.0 mi Calm Calm - N/A Snow Snow
10:19 PM 21.2 °F - 19.4 °F 93% 30.06 in 0.5 mi Calm Calm - N/A Snow Snow
10:37 PM 21.2 °F - 19.4 °F 93% 30.06 in 1.0 mi Calm Calm - N/A Snow Light Snow
10:59 PM 21.2 °F - 19.4 °F 93% 30.05 in 1.5 mi Calm Calm - N/A Snow Light Snow
11:19 PM 21.2 °F - 19.4 °F 93% 30.04 in 1.8 mi Calm Calm - N/A Snow Light Snow
11:37 PM 21.2 °F - 19.4 °F 93% 30.04 in 2.5 mi Calm Calm - N/A Snow Light Snow
11:59 PM 21.2 °F - 19.4 °F 93% 30.04 in 3.0 mi Calm Calm - N/A Snow Light Snow